sat.trackr.live / text

‹ back to catalog

STARLINK-34940

NORAD 65397 · 2025-191U

PAYLOAD ACTIVE UNKNOWN

§ Identity

Operator
Country
US
Launch date
2025-08-30
Launch site
AFWTR
Launch vehicle
Mass (kg)
RCS (m²)

Purposes: comms

External: N2YO · Heavens-Above · Gunter

§ Orbital elements

Epoch: 2026-05-25T03:20:02.378688Z

Period
95.64 min
Inclination
97.4498°
Eccentricity
0.0002498
Mean motion
15.05656490 rev/d
Perigee alt
547.8 km
Apogee alt
551.2 km
Semi-major
6,927.6 km
B*
2.9042e-4
RAAN
16.5158°
Arg perigee
90.9741°
Mean anomaly
269.1773°
Rev number
4,177

§ Raw data

STARLINK-349401 65397U 25191U   26145.13891642  .00004135  00000+0  29042-3 0  99922 65397  97.4498  16.5158 0002498  90.9741 269.1773 15.05656490 41777

JSON: /api/v1/satellites/65397 · /tle

For live sub-satellite position, see the globe view (requires WebGL).

§ Visibility from observer

Set your observer location to see the next 7 days of passes ≥ 10°. The values pass through the URL so the page stays shareable.

No JS? Fill the form by hand. The geolocation button needs JavaScript.